Weather History for Key West NAF, FL

Change the Weather History Date:

Wednesday, October 31, 2012

  Actual Average Record
Temperature  
Mean Temperature 72 °F -  
Max Temperature 79 °F 82 °F 88 °F (2010)
Min Temperature 66 °F 73 °F 66 °F (2012)
Cooling Degree Days 8    
Growing Degree Days 22 (Base 50)    
Moisture  
Dew Point 55 °F    
Average Humidity 54    
Maximum Humidity 66    
Minimum Humidity 44    
Precipitation  
Precipitation 0.00 in - - ()
Sea Level Pressure  
Sea Level Pressure 30.04 in    
Wind  
Wind Speed 6 mph (NW)    
Max Wind Speed 9 mph    
Max Gust Speed -    
Visibility 10 miles    
Events      
Averages and records for this station are not official NWS values.
T = Trace of Precipitation, MM = Missing Value Source: NWS Daily Summary

Daily Weather History Graph

Daily Weather History Graph

Search for Another Location

Airport:

Trip Planner

Search our weather history database for the weather conditions in past years. The results will help you decide how hot, cold, wet, or windy it might be!

Date:

Astronomy

Oct. 31, 2012 Rise Set
Actual Time 7:33 AM EDT 6:47 PM EDT
Civil Twilight 7:09 AM EDT 7:10 PM EDT
Nautical Twilight 6:42 AM EDT 7:37 PM EDT
Astronomical Twilight 6:16 AM EDT 8:04 PM EDT
Moon 8:08 PM EDT (10/31) 9:02 AM EDT (10/31)
Length of Visible Light 12h 00m
Length of Day
11h 13m
Full, 97% of the Moon is Illuminated
Oct 31
Full
Nov 6
Last Quarter
Nov 13
New
Nov 20
First Quarter
Nov 28
Full

Hourly Weather History & Observations

Time (EDT) Temp. Dew Point Humidity Pressure Visibility Wind Dir Wind Speed Gust Speed Precip Events Conditions
12:53 AM 70.0 °F 54.0 °F 57% 30.04 in 10.0 mi WNW 6.9 mph - N/A   Scattered Clouds
1:53 AM 69.1 °F 54.0 °F 58% 30.03 in 10.0 mi WNW 5.8 mph - N/A   Clear
2:53 AM 69.1 °F 55.9 °F 63% 30.03 in 10.0 mi WNW 3.5 mph - N/A   Clear
3:53 AM 70.0 °F 55.0 °F 59% 30.02 in 10.0 mi WNW 6.9 mph - N/A   Overcast
4:53 AM 68.0 °F 54.0 °F 61% 30.02 in 10.0 mi WNW 4.6 mph - N/A   Clear
5:53 AM 68.0 °F 54.0 °F 61% 30.02 in 10.0 mi NNW 3.5 mph - N/A   Partly Cloudy
6:28 AM 68.0 °F 55.4 °F 64% 30.04 in 10.0 mi NW 4.6 mph - N/A   Scattered Clouds
6:53 AM 66.9 °F 55.0 °F 66% 30.04 in 10.0 mi WNW 3.5 mph - N/A   Scattered Clouds
7:53 AM 68.0 °F 55.0 °F 63% 30.04 in 10.0 mi NNW 3.5 mph - N/A   Mostly Cloudy
8:53 AM 73.0 °F 55.9 °F 55% 30.06 in 10.0 mi Calm Calm - N/A   Mostly Cloudy
9:53 AM 75.9 °F 55.9 °F 50% 30.07 in 10.0 mi NNW 6.9 mph - N/A   Scattered Clouds
10:53 AM 77.0 °F 55.0 °F 47% 30.09 in 10.0 mi NW 8.1 mph - N/A   Scattered Clouds
11:53 AM 78.1 °F 55.0 °F 45% 30.08 in 10.0 mi WNW 6.9 mph - N/A   Scattered Clouds
12:53 PM 79.0 °F 55.9 °F 45% 30.06 in 10.0 mi WNW 6.9 mph - N/A   Scattered Clouds
1:53 PM 78.1 °F 55.9 °F 46% 30.04 in 10.0 mi NW 9.2 mph - N/A   Scattered Clouds
2:53 PM 78.1 °F 55.9 °F 46% 30.02 in 10.0 mi WNW 8.1 mph - N/A   Partly Cloudy
3:53 PM 78.8 °F 55.0 °F 44% 30.02 in 10.0 mi WNW 9.2 mph - N/A   Clear
4:53 PM 75.2 °F 55.0 °F 49% 30.01 in 10.0 mi NW 9.2 mph - N/A   Partly Cloudy
5:53 PM 75.2 °F 55.9 °F 51% 30.02 in 10.0 mi NW 8.1 mph - N/A   Partly Cloudy
6:53 PM 75.2 °F 55.9 °F 51% 30.03 in 10.0 mi WNW 4.6 mph - N/A   Partly Cloudy
7:53 PM 73.4 °F 55.9 °F 54% 30.03 in 10.0 mi NW 4.6 mph - N/A   Partly Cloudy
8:53 PM 73.4 °F 57.9 °F 58% 30.05 in 10.0 mi NW 4.6 mph - N/A   Partly Cloudy
9:53 PM 71.6 °F 57.0 °F 60% 30.07 in 10.0 mi WNW 4.6 mph - N/A   Partly Cloudy
10:53 PM - - N/A% 30.08 in 10.0 mi Calm Calm - N/A   Partly Cloudy
11:53 PM - - N/A% 30.08 in 10.0 mi Calm Calm - N/A   Mostly Cloudy